User: anonymous   Login
Location: Newark
(40.9833°N, 0.0333°W)
Time: 16:02:15
(UTC+00:00)
Language:

SR - Orbit

View from above orbital plane
View from above orbital plane
View from above satellite
View from above satellite

Ground track
Ground track

The orbit data is extracted from the following two-line orbital elements,

1    46U 60007B   20294.85239009 +.00000012 +00000-0 +25512-4 0  9998
2    46 066.6907 067.7036 0205549 036.1039 325.3747 14.49323548157278
Epoch (UTC): 20 October 2020 20:27:26
Eccentricity: 0.0205549
inclination: 66.6907°
perigee height: 582 km
apogee height: 874 km
right ascension of ascending node: 67.7036°
argument of perigee: 36.1039°
revolutions per day: 14.49323548
mean anomaly at epoch: 325.3747°
orbit number at epoch: 15727

The dashed part of the orbit path shows where the satellite is in the earth's shadow,  

DLR